Date String (YYYY-MM-DD hh:mm:ss) UTC,Instrument flags,Ambient pressure (hPa),Sample flow (lpm),Bypass flow (lpm),Sample temperature (°C),Ambient temperature (°C),ASC tube jacket temperature (°C),LED temperature (°C),Box temperature (°C),Sample RH (%),Span deviation,Mass concentration (μg/m³),Mass concentration (μg/m³),Mass concentration (μg/m³)
DateTimeUTC,F1_M11,P_M11,Q1_M11,Q2_M11,T1_M11,T2_M11,T3_M11,T4_M11,T5_M11,U1_M11,ZSPAN_M11,X0_M11,X2_M11,X1_M11
2022-02-22 01:00:00,,0818.0,4.98,0.00,22.1,21.4,00.0,31.3,23.6,08.2,-000.7,0011.22,0005.79,0004.85
2022-02-22 01:01:00,,0818.1,5.00,0.00,22.0,21.3,00.0,31.3,23.6,08.2,-000.5,0011.45,0005.84,0004.87
2022-02-22 01:02:00,,0818.1,5.00,0.00,22.1,21.9,00.0,31.3,23.8,08.1,-000.2,0011.18,0005.80,0004.89
2022-02-22 01:03:00,,0818.2,5.01,0.00,22.2,22.7,00.0,31.3,24.1,08.0,0000.4,0011.07,0005.84,0004.90
2022-02-22 01:04:00,,0818.3,4.99,0.00,22.4,23.0,00.0,31.3,24.3,08.0,0000.4,0011.60,0005.84,0004.90
2022-02-22 01:05:00,,0818.4,5.01,0.00,22.4,22.7,00.0,31.3,24.3,08.0,0000.7,0011.73,0005.90,0004.93
2022-02-22 01:06:00,,0818.4,4.98,0.00,22.4,22.4,00.0,31.3,24.2,08.0,0000.4,0011.71,0005.89,0004.94
2022-02-22 01:07:00,,0818.4,5.01,0.00,22.3,22.2,00.0,31.3,24.1,08.0,0000.3,0011.60,0005.85,0004.93
2022-02-22 01:08:00,,0818.4,5.00,0.00,22.3,22.0,00.0,31.3,23.9,08.0,0001.1,0011.64,0005.86,0004.94
2022-02-22 01:09:00,,0818.4,5.01,0.00,22.2,21.8,00.0,31.3,23.9,08.0,0001.7,0011.62,0005.89,0004.94
2022-02-22 01:10:00,,0818.4,5.00,0.00,22.2,21.6,00.0,31.3,23.8,08.0,0002.2,0011.57,0005.85,0004.93
2022-02-22 01:11:00,,0818.4,5.00,0.00,22.1,21.5,00.0,31.3,23.7,08.0,0002.6,0011.59,0005.81,0004.92
2022-02-22 01:12:00,,0818.4,5.00,0.00,22.1,21.4,00.0,31.3,23.6,08.1,0002.8,0011.81,0005.74,0004.90
2022-02-22 01:13:00,,0818.5,5.00,0.00,22.1,21.9,00.0,31.3,23.8,08.1,0002.9,0012.52,0005.74,0004.90
2022-02-22 01:14:00,,0818.6,5.01,0.00,22.3,22.7,00.0,31.3,24.1,08.0,0002.5,0013.49,0005.74,0004.89
2022-02-22 01:15:00,,0818.8,5.00,0.00,22.4,23.1,00.0,31.3,24.3,07.9,0002.3,0013.71,0005.76,0004.89
2022-02-22 01:16:00,,0818.8,5.00,0.00,22.4,22.9,00.0,31.3,24.3,07.9,0001.7,0013.99,0005.76,0004.89
2022-02-22 01:17:00,,0818.8,5.00,0.00,22.4,22.5,00.0,31.3,24.2,07.9,0001.8,0014.11,0005.74,0004.87
2022-02-22 01:18:00,,0818.7,5.00,0.00,22.4,22.2,00.0,31.3,24.1,07.9,0001.9,0014.27,0005.78,0004.87
2022-02-22 01:19:00,,0818.8,5.00,0.00,22.3,22.0,00.0,31.3,23.9,07.9,0001.7,0014.47,0005.81,0004.86
2022-02-22 01:20:00,,0818.7,5.00,0.00,22.2,21.8,00.0,31.3,23.8,07.9,0001.1,0014.60,0005.85,0004.84
2022-02-22 01:21:00,,0818.8,5.00,0.00,22.2,21.6,00.0,31.3,23.7,07.9,0000.8,0014.69,0005.87,0004.82
2022-02-22 01:22:00,,0818.7,5.02,0.00,22.1,21.5,00.0,31.3,23.6,07.9,0000.3,0014.84,0005.84,0004.81
2022-02-22 01:23:00,,0818.8,5.00,0.00,22.0,21.5,00.0,31.3,23.6,07.9,0000.4,0014.66,0005.84,0004.79
2022-02-22 01:24:00,,0818.8,5.00,0.00,22.1,22.1,00.0,31.3,23.8,07.8,0000.1,0014.09,0005.83,0004.77
2022-02-22 01:25:00,,0818.8,5.00,0.00,22.3,22.9,00.0,31.3,24.1,07.7,0000.4,0013.16,0005.83,0004.75
2022-02-22 01:26:00,,0818.8,4.99,0.00,22.4,23.0,00.0,31.3,24.3,07.7,0000.7,0012.71,0005.80,0004.71
2022-02-22 01:27:00,,0818.9,5.01,0.00,22.4,22.8,00.0,31.4,24.3,07.6,0000.9,0012.03,0005.78,0004.69
2022-02-22 01:28:00,,0818.9,5.00,0.00,22.4,22.5,00.0,31.3,24.2,07.6,0001.1,0011.81,0005.72,0004.66
2022-02-22 01:29:00,,0818.9,5.01,0.00,22.4,22.2,00.0,31.3,24.1,07.6,0000.5,0011.63,0005.67,0004.64
2022-02-22 01:30:00,,0818.9,5.00,0.00,22.3,22.0,00.0,31.3,24.0,07.6,0000.5,0011.43,0005.65,0004.62
2022-02-22 01:31:00,,0818.9,4.99,0.00,22.3,21.8,00.0,31.3,23.9,07.6,0000.7,0011.32,0005.61,0004.60
2022-02-22 01:32:00,,0818.9,4.99,0.00,22.2,21.7,00.0,31.3,23.9,07.6,0000.4,0011.01,0005.52,0004.58
2022-02-22 01:33:00,,0819.0,5.00,0.00,22.2,21.6,00.0,31.3,23.8,07.6,0000.5,0010.54,0005.50,0004.55
2022-02-22 01:34:00,,0819.0,5.00,0.00,22.2,21.8,00.0,31.3,23.8,07.6,0000.5,0010.47,0005.49,0004.54
2022-02-22 01:35:00,,0819.0,5.02,0.00,22.3,22.5,00.0,31.3,24.1,07.6,0000.3,0010.50,0005.46,0004.51
2022-02-22 01:36:00,,0819.1,4.99,0.00,22.5,23.2,00.0,31.4,24.4,07.5,0000.3,0010.35,0005.43,0004.50
2022-02-22 01:37:00,,0819.1,4.98,0.00,22.5,23.0,00.0,31.4,24.4,07.5,-000.0,0010.21,0005.42,0004.50
2022-02-22 01:38:00,,0819.1,5.01,0.00,22.5,22.7,00.0,31.4,24.3,07.5,0000.3,0010.50,0005.39,0004.48
2022-02-22 01:39:00,,0819.1,5.00,0.00,22.4,22.3,00.0,31.4,24.1,07.4,0000.6,0010.65,0005.38,0004.45
2022-02-22 01:40:00,,0819.1,5.00,0.00,22.4,22.1,00.0,31.4,24.0,07.5,0000.4,0010.93,0005.39,0004.45
2022-02-22 01:41:00,,0819.1,5.00,0.00,22.3,21.8,00.0,31.4,23.9,07.5,-000.0,0010.87,0005.37,0004.44
2022-02-22 01:42:00,,0819.1,5.01,0.00,22.2,21.6,00.0,31.3,23.8,07.5,-000.0,0010.78,0005.33,0004.43
2022-02-22 01:43:00,,0819.2,5.00,0.00,22.1,21.4,00.0,31.3,23.7,07.5,0000.1,0010.72,0005.30,0004.44
2022-02-22 01:44:00,,0819.2,5.00,0.00,22.1,21.6,00.0,31.3,23.7,07.5,0001.0,0010.79,0005.31,0004.45
2022-02-22 01:45:00,,0819.2,4.98,0.00,22.2,22.2,00.0,31.3,23.9,07.5,0001.4,0010.39,0005.30,0004.44
2022-02-22 01:46:00,,0819.2,5.02,0.00,22.4,23.0,00.0,31.4,24.2,07.4,0002.0,0010.77,0005.31,0004.44
2022-02-22 01:47:00,,0819.2,5.00,0.00,22.5,23.4,00.0,31.4,24.4,07.3,0002.4,0010.80,0005.28,0004.43
2022-02-22 01:48:00,,0819.3,5.00,0.00,22.6,23.1,00.0,31.4,24.4,07.2,0002.7,0010.90,0005.26,0004.42
2022-02-22 01:49:00,,0819.3,5.01,0.00,22.5,22.7,00.0,31.4,24.3,07.1,0002.8,0010.50,0005.22,0004.41
2022-02-22 01:50:00,,0819.3,5.00,0.00,22.4,22.4,00.0,31.4,24.1,07.1,0002.5,0010.66,0005.23,0004.42
2022-02-22 01:51:00,,0819.4,5.00,0.00,22.4,22.1,00.0,31.4,23.9,07.1,0003.2,0010.43,0005.19,0004.41
2022-02-22 01:52:00,,0819.4,5.00,0.00,22.3,21.8,00.0,31.4,23.9,07.1,0003.8,0010.21,0005.15,0004.39
2022-02-22 01:53:00,,0819.4,5.00,0.00,22.2,21.6,00.0,31.3,23.7,07.1,0003.7,0010.12,0005.12,0004.38
2022-02-22 01:54:00,,0819.4,5.00,0.00,22.2,21.6,00.0,31.3,23.7,07.1,0003.7,0010.21,0005.15,0004.37
2022-02-22 01:55:00,,0819.4,5.00,0.00,22.3,22.3,00.0,31.4,24.0,07.1,0003.4,0010.13,0005.13,0004.36
2022-02-22 01:56:00,,0819.4,5.00,0.00,22.4,23.0,00.0,31.4,24.2,07.0,0001.2,0010.95,0005.10,0004.36
2022-02-22 01:57:00,,0819.4,5.00,0.00,22.5,23.1,00.0,31.4,24.4,06.9,0000.0,0010.56,0005.06,0004.35
2022-02-22 01:58:00,,0819.4,5.01,0.00,22.5,22.8,00.0,31.4,24.3,06.9,0000.0,0010.56,0005.06,0004.35
2022-02-22 01:59:00,,0819.4,5.00,0.00,22.5,22.5,00.0,31.4,24.2,07.0,0000.0,0010.37,0005.05,0004.34
